Time,TemperatureF,DewpointF,PressureIn,WindDirection,WindDirectionDegrees,WindSpeedMPH,WindSpeedGustMPH,Humidity,HourlyPrecipIn,Conditions,Clouds,dailyrainin,SolarRadiationWatts/m^2,SoftwareType,DateUTC
2013-06-11 00:00:00,72.9,69.1,29.78,West,261,0.0,0.0,88,0.00,,SCT110,0.00,0.00,VWS V14.01,2013-06-11 05:00:00,
2013-06-11 00:04:00,72.3,68.9,29.78,West,261,0.0,0.0,89,0.00,,CLR,0.00,0.00,VWS V14.01,2013-06-11 05:04:00,
2013-06-11 00:05:00,72.2,68.8,29.78,West,261,0.0,0.0,89,0.00,,SCT110,0.00,0.00,VWS V14.01,2013-06-11 05:05:00,
2013-06-11 00:09:00,71.5,68.4,29.78,West,261,0.0,0.0,90,0.00,,CLR,0.00,0.00,VWS V14.01,2013-06-11 05:09:00,
2013-06-11 00:10:00,71.4,68.6,29.78,West,261,0.0,0.0,91,0.00,,SCT110,0.00,0.00,VWS V14.01,2013-06-11 05:10:00,
2013-06-11 00:14:00,71.0,68.6,29.78,West,261,0.0,0.0,92,0.00,,CLR,0.00,0.00,VWS V14.01,2013-06-11 05:14:00,
2013-06-11 00:15:00,71.0,68.6,29.78,West,261,0.0,0.0,92,0.00,,SCT110,0.00,0.00,VWS V14.01,2013-06-11 05:15:00,
2013-06-11 00:19:00,70.7,68.6,29.78,West,261,0.0,0.0,93,0.00,,CLR,0.00,0.00,VWS V14.01,2013-06-11 05:19:00,
2013-06-11 00:20:00,70.7,68.6,29.78,West,261,0.0,0.0,93,0.00,,SCT110,0.00,0.00,VWS V14.01,2013-06-11 05:20:00,
2013-06-11 00:24:00,70.6,68.5,29.78,West,261,0.0,0.0,93,0.00,,CLR,0.00,0.00,VWS V14.01,2013-06-11 05:24:00,
2013-06-11 00:25:00,70.6,68.5,29.78,West,261,0.0,0.0,93,0.00,,SCT110,0.00,0.00,VWS V14.01,2013-06-11 05:25:00,
2013-06-11 00:29:00,70.3,68.2,29.78,West,261,0.0,0.0,93,0.00,,CLR,0.00,0.00,VWS V14.01,2013-06-11 05:29:00,
2013-06-11 00:30:00,70.3,68.5,29.78,West,261,0.0,0.0,94,0.00,,SCT110,0.00,0.00,VWS V14.01,2013-06-11 05:30:00,
2013-06-11 00:34:00,70.5,68.4,29.78,West,261,0.0,1.0,93,0.00,,CLR,0.00,0.00,VWS V14.01,2013-06-11 05:34:00,
2013-06-11 00:35:00,70.6,68.5,29.78,West,261,0.0,1.0,93,0.00,,SCT110,0.00,0.00,VWS V14.01,2013-06-11 05:35:00,
2013-06-11 00:39:00,70.5,68.4,29.78,West,261,0.0,0.0,93,0.00,,CLR,0.00,0.00,VWS V14.01,2013-06-11 05:39:00,
2013-06-11 00:40:00,70.4,68.3,29.78,West,261,0.0,0.0,93,0.00,,SCT110,0.00,0.00,VWS V14.01,2013-06-11 05:40:00,
2013-06-11 00:44:00,70.5,68.4,29.78,West,261,0.0,0.0,93,0.00,,CLR,0.00,0.00,VWS V14.01,2013-06-11 05:44:00,
2013-06-11 00:45:00,70.6,68.5,29.78,West,261,0.0,0.0,93,0.00,,SCT110,0.00,0.00,VWS V14.01,2013-06-11 05:45:00,
2013-06-11 00:49:00,70.6,68.2,29.78,West,261,0.0,0.0,92,0.00,,CLR,0.00,0.00,VWS V14.01,2013-06-11 05:49:00,
2013-06-11 00:50:00,70.6,68.2,29.78,West,261,0.0,0.0,92,0.00,,SCT110,0.00,0.00,VWS V14.01,2013-06-11 05:50:00,
2013-06-11 00:55:00,70.3,68.2,29.78,West,261,0.0,0.0,93,0.00,,CLR,0.00,0.00,VWS V14.01,2013-06-11 05:55:00,
2013-06-11 01:00:00,69.9,67.8,29.78,West,261,0.0,0.0,93,0.00,,CLR,0.00,0.00,VWS V14.01,2013-06-11 06:00:00,
2013-06-11 01:05:00,69.7,67.9,29.78,West,261,0.0,0.0,94,0.00,,CLR,0.00,0.00,VWS V14.01,2013-06-11 06:05:00,
2013-06-11 01:10:00,70.1,68.3,29.78,West,261,0.0,0.0,94,0.00,,CLR,0.00,0.00,VWS V14.01,2013-06-11 06:10:00,
2013-06-11 01:15:00,70.3,68.2,29.79,West,261,0.0,1.0,93,0.00,,CLR,0.00,0.00,VWS V14.01,2013-06-11 06:15:00,
2013-06-11 01:20:00,70.7,67.9,29.79,West,261,0.0,0.0,91,0.00,,CLR,0.00,0.00,VWS V14.01,2013-06-11 06:20:00,
2013-06-11 01:25:00,71.5,68.1,29.79,West,261,0.0,1.0,89,0.00,,CLR,0.00,0.00,VWS V14.01,2013-06-11 06:25:00,
2013-06-11 01:30:00,72.0,67.9,29.78,West,261,0.0,1.0,87,0.00,,CLR,0.00,0.00,VWS V14.01,2013-06-11 06:30:00,
2013-06-11 01:35:00,72.5,68.1,29.78,East,101,0.0,3.0,86,0.00,,CLR,0.00,0.00,VWS V14.01,2013-06-11 06:35:00,
2013-06-11 01:40:00,73.0,67.9,29.78,East,100,0.0,1.0,84,0.00,,CLR,0.00,0.00,VWS V14.01,2013-06-11 06:40:00,
2013-06-11 01:45:00,73.2,67.7,29.78,East,101,0.0,2.0,83,0.00,,CLR,0.00,0.00,VWS V14.01,2013-06-11 06:45:00,
2013-06-11 01:50:00,73.1,67.3,29.78,East,101,0.0,1.0,82,0.00,,CLR,0.00,0.00,VWS V14.01,2013-06-11 06:50:00,
2013-06-11 01:55:00,72.7,67.2,29.78,East,99,0.0,2.0,83,0.00,,CLR,0.00,0.00,VWS V14.01,2013-06-11 06:55:00,
2013-06-11 02:00:00,72.2,67.1,29.78,East,99,0.0,0.0,84,0.00,,CLR,0.00,0.00,VWS V14.01,2013-06-11 07:00:00,
2013-06-11 02:05:00,71.5,67.1,29.78,East,99,0.0,0.0,86,0.00,,CLR,0.00,0.00,VWS V14.01,2013-06-11 07:05:00,
2013-06-11 02:10:00,70.9,66.8,29.78,East,99,1.0,1.0,87,0.00,,CLR,0.00,0.00,VWS V14.01,2013-06-11 07:10:00,
2013-06-11 02:15:00,70.8,67.1,29.78,East,99,0.0,2.0,88,0.00,,SCT110,0.00,0.00,VWS V14.01,2013-06-11 07:15:00,
2013-06-11 02:16:00,70.8,67.1,29.78,East,99,0.0,0.0,88,0.00,,CLR,0.00,0.00,VWS V14.01,2013-06-11 07:16:00,
2013-06-11 02:20:00,70.5,66.8,29.78,East,99,0.0,1.0,88,0.00,,SCT110,0.00,0.00,VWS V14.01,2013-06-11 07:20:00,
2013-06-11 02:21:00,70.6,66.9,29.78,East,99,0.0,1.0,88,0.00,,CLR,0.00,0.00,VWS V14.01,2013-06-11 07:21:00,
2013-06-11 02:25:00,71.4,67.0,29.78,East,99,0.0,1.0,86,0.00,,SCT110,0.00,0.00,VWS V14.01,2013-06-11 07:25:00,
2013-06-11 02:26:00,71.5,66.8,29.78,East,99,0.0,1.0,85,0.00,,CLR,0.00,0.00,VWS V14.01,2013-06-11 07:26:00,
2013-06-11 02:30:00,72.3,67.2,29.78,ESE,103,0.0,3.0,84,0.00,,SCT110,0.00,0.00,VWS V14.01,2013-06-11 07:30:00,
2013-06-11 02:31:00,72.3,67.2,29.78,ESE,103,0.0,1.0,84,0.00,,CLR,0.00,0.00,VWS V14.01,2013-06-11 07:31:00,
2013-06-11 02:35:00,72.8,67.0,29.78,ESE,103,0.0,2.0,82,0.00,,SCT110,0.00,0.00,VWS V14.01,2013-06-11 07:35:00,
2013-06-11 02:36:00,72.7,66.9,29.78,ESE,103,0.0,0.0,82,0.00,,CLR,0.00,0.00,VWS V14.01,2013-06-11 07:36:00,
2013-06-11 02:40:00,72.0,66.6,29.78,ESE,103,1.0,2.0,83,0.00,,SCT110,0.00,0.00,VWS V14.01,2013-06-11 07:40:00,
2013-06-11 02:41:00,72.0,66.6,29.78,ESE,103,0.0,1.0,83,0.00,,CLR,0.00,0.00,VWS V14.01,2013-06-11 07:41:00,
2013-06-11 02:45:00,72.5,67.1,29.78,ESE,103,0.0,1.0,83,0.00,,SCT110,0.00,0.00,VWS V14.01,2013-06-11 07:45:00,
2013-06-11 02:46:00,72.4,66.9,29.78,ESE,103,0.0,0.0,83,0.00,,CLR,0.00,0.00,VWS V14.01,2013-06-11 07:46:00,
2013-06-11 02:50:00,71.9,66.8,29.78,ENE,78,0.0,3.0,84,0.00,,SCT110,0.00,0.00,VWS V14.01,2013-06-11 07:50:00,
2013-06-11 02:51:00,71.8,66.7,29.78,ENE,78,0.0,0.0,84,0.00,,CLR,0.00,0.00,VWS V14.01,2013-06-11 07:51:00,
2013-06-11 02:55:00,72.0,66.6,29.78,ENE,78,0.0,1.0,83,0.00,,SCT110,0.00,0.00,VWS V14.01,2013-06-11 07:55:00,
2013-06-11 02:56:00,72.1,66.7,29.78,ENE,78,1.0,1.0,83,0.00,,CLR,0.00,0.00,VWS V14.01,2013-06-11 07:56:00,
2013-06-11 03:00:00,71.8,66.7,29.79,ENE,78,0.0,1.0,84,0.00,,SCT110,0.00,0.00,VWS V14.01,2013-06-11 08:00:00,
2013-06-11 03:01:00,71.8,66.7,29.79,ENE,78,0.0,0.0,84,0.00,,CLR,0.00,0.00,VWS V14.01,2013-06-11 08:01:00,
2013-06-11 03:05:00,71.7,66.6,29.79,ENE,78,0.0,2.0,84,0.00,,SCT110,0.00,0.00,VWS V14.01,2013-06-11 08:05:00,
2013-06-11 03:06:00,71.6,66.9,29.79,ENE,78,0.0,0.0,85,0.00,,CLR,0.00,0.00,VWS V14.01,2013-06-11 08:06:00,
2013-06-11 03:10:00,71.8,66.7,29.79,ENE,78,0.0,2.0,84,0.00,,SCT110,0.00,0.00,VWS V14.01,2013-06-11 08:10:00,
2013-06-11 03:11:00,72.1,66.7,29.79,ENE,78,0.0,1.0,83,0.00,,CLR,0.00,0.00,VWS V14.01,2013-06-11 08:11:00,
2013-06-11 03:15:00,72.4,66.6,29.79,ENE,78,0.0,2.0,82,0.00,,SCT110,0.00,0.00,VWS V14.01,2013-06-11 08:15:00,
2013-06-11 03:16:00,72.3,66.8,29.79,ENE,78,0.0,0.0,83,0.00,,CLR,0.00,0.00,VWS V14.01,2013-06-11 08:16:00,
2013-06-11 03:20:00,72.2,66.8,29.79,ENE,78,0.0,1.0,83,0.00,,SCT110,0.00,0.00,VWS V14.01,2013-06-11 08:20:00,
2013-06-11 03:21:00,72.1,66.7,29.79,ENE,78,0.0,0.0,83,0.00,,CLR,0.00,0.00,VWS V14.01,2013-06-11 08:21:00,
2013-06-11 03:25:00,72.0,66.6,29.79,ENE,78,0.0,0.0,83,0.00,,SCT110,0.00,0.00,VWS V14.01,2013-06-11 08:25:00,
2013-06-11 03:26:00,72.0,66.6,29.79,ENE,78,0.0,1.0,83,0.00,,CLR,0.00,0.00,VWS V14.01,2013-06-11 08:26:00,
2013-06-11 03:30:00,71.7,66.3,29.78,ENE,78,0.0,1.0,83,0.00,,SCT110,0.00,0.00,VWS V14.01,2013-06-11 08:30:00,
2013-06-11 03:31:00,71.7,66.3,29.78,ENE,78,0.0,1.0,83,0.00,,CLR,0.00,0.00,VWS V14.01,2013-06-11 08:31:00,
2013-06-11 03:35:00,71.8,66.4,29.78,ENE,76,0.0,2.0,83,0.00,,SCT110,0.00,0.00,VWS V14.01,2013-06-11 08:35:00,
2013-06-11 03:36:00,71.9,66.5,29.78,ENE,76,0.0,0.0,83,0.00,,CLR,0.00,0.00,VWS V14.01,2013-06-11 08:36:00,
2013-06-11 03:40:00,71.9,66.5,29.78,ENE,76,0.0,2.0,83,0.00,,SCT110,0.00,0.00,VWS V14.01,2013-06-11 08:40:00,
2013-06-11 03:41:00,72.0,66.6,29.78,ENE,76,0.0,1.0,83,0.00,,CLR,0.00,0.00,VWS V14.01,2013-06-11 08:41:00,
2013-06-11 03:45:00,72.0,66.6,29.78,ENE,76,0.0,2.0,83,0.00,,SCT110,0.00,0.00,VWS V14.01,2013-06-11 08:45:00,
2013-06-11 03:47:00,72.0,66.6,29.78,ENE,76,0.0,1.0,83,0.00,,CLR,0.00,0.00,VWS V14.01,2013-06-11 08:47:00,
2013-06-11 03:50:00,71.8,66.4,29.78,ENE,76,0.0,2.0,83,0.00,,SCT110,0.00,0.00,VWS V14.01,2013-06-11 08:50:00,
2013-06-11 03:52:00,71.6,66.5,29.78,ENE,76,2.0,2.0,84,0.00,,CLR,0.00,0.00,VWS V14.01,2013-06-11 08:52:00,
2013-06-11 03:55:00,71.5,66.4,29.78,ESE,103,0.0,2.0,84,0.00,,SCT110,0.00,0.00,VWS V14.01,2013-06-11 08:55:00,
2013-06-11 03:57:00,71.5,66.4,29.78,ESE,103,0.0,2.0,84,0.00,,CLR,0.00,0.00,VWS V14.01,2013-06-11 08:57:00,
2013-06-11 04:00:00,71.6,66.5,29.79,ESE,103,0.0,2.0,84,0.00,,SCT110,0.00,0.00,VWS V14.01,2013-06-11 09:00:00,
2013-06-11 04:02:00,71.5,66.4,29.79,ESE,103,0.0,0.0,84,0.00,,CLR,0.00,0.00,VWS V14.01,2013-06-11 09:02:00,
2013-06-11 04:05:00,71.1,66.4,29.79,ESE,103,0.0,2.0,85,0.00,,SCT110,0.00,0.00,VWS V14.01,2013-06-11 09:05:00,
2013-06-11 04:07:00,71.0,66.3,29.79,ESE,103,0.0,1.0,85,0.00,,CLR,0.00,0.00,VWS V14.01,2013-06-11 09:07:00,
2013-06-11 04:10:00,70.7,66.3,29.79,ESE,103,0.0,1.0,86,0.00,,SCT110,0.00,0.00,VWS V14.01,2013-06-11 09:10:00,
2013-06-11 04:12:00,70.6,66.2,29.79,ESE,103,0.0,1.0,86,0.00,,CLR,0.00,0.00,VWS V14.01,2013-06-11 09:12:00,
2013-06-11 04:15:00,70.3,66.2,29.78,ESE,103,0.0,2.0,87,0.00,,SCT110,0.00,0.00,VWS V14.01,2013-06-11 09:15:00,
2013-06-11 04:17:00,70.3,66.2,29.78,East,101,0.0,2.0,87,0.00,,CLR,0.00,0.00,VWS V14.01,2013-06-11 09:17:00,
2013-06-11 04:20:00,70.3,66.2,29.78,East,99,0.0,2.0,87,0.00,,SCT110,0.00,0.00,VWS V14.01,2013-06-11 09:20:00,
2013-06-11 04:22:00,70.3,66.2,29.78,East,99,0.0,0.0,87,0.00,,CLR,0.00,0.00,VWS V14.01,2013-06-11 09:22:00,
2013-06-11 04:25:00,70.0,66.0,29.78,NE,55,0.0,5.0,87,0.00,,SCT110,0.00,0.00,VWS V14.01,2013-06-11 09:25:00,
2013-06-11 04:27:00,70.3,66.2,29.78,NE,55,1.0,1.0,87,0.00,,CLR,0.00,0.00,VWS V14.01,2013-06-11 09:27:00,
2013-06-11 04:30:00,70.5,66.4,29.78,ESE,106,1.0,3.0,87,0.00,,SCT110,0.00,0.00,VWS V14.01,2013-06-11 09:30:00,
2013-06-11 04:32:00,70.5,66.1,29.78,ENE,69,0.0,2.0,86,0.00,,CLR,0.00,0.00,VWS V14.01,2013-06-11 09:32:00,
2013-06-11 04:35:00,70.4,66.3,29.78,NE,40,0.0,3.0,87,0.00,,SCT110,0.00,0.00,VWS V14.01,2013-06-11 09:35:00,
2013-06-11 04:37:00,70.4,66.3,29.78,East,87,0.0,1.0,87,0.00,,CLR,0.00,0.00,VWS V14.01,2013-06-11 09:37:00,
2013-06-11 04:40:00,70.3,66.2,29.78,ESE,107,1.0,2.0,87,0.00,,SCT110,0.00,0.00,VWS V14.01,2013-06-11 09:40:00,
2013-06-11 04:42:00,70.3,66.2,29.78,ESE,107,1.0,1.0,87,0.00,,CLR,0.00,0.00,VWS V14.01,2013-06-11 09:42:00,
2013-06-11 04:45:00,70.0,66.0,29.78,ESE,108,0.0,2.0,87,0.00,,SCT110,0.00,0.00,VWS V14.01,2013-06-11 09:45:00,
2013-06-11 04:47:00,69.7,66.0,29.78,ESE,108,1.0,1.0,88,0.00,,CLR,0.00,0.00,VWS V14.01,2013-06-11 09:47:00,
2013-06-11 04:50:00,69.7,66.3,29.78,East,87,0.0,4.0,89,0.00,,SCT110,0.00,0.00,VWS V14.01,2013-06-11 09:50:00,
2013-06-11 04:52:00,69.8,66.1,29.78,East,80,0.0,2.0,88,0.00,,CLR,0.00,0.00,VWS V14.01,2013-06-11 09:52:00,
2013-06-11 04:55:00,69.9,66.2,29.78,NNE,32,1.0,3.0,88,0.00,,SCT110,0.00,0.00,VWS V14.01,2013-06-11 09:55:00,
2013-06-11 04:58:00,69.9,66.2,29.78,ESE,107,0.0,3.0,88,0.00,,CLR,0.00,0.00,VWS V14.01,2013-06-11 09:58:00,
2013-06-11 05:00:00,69.4,65.7,29.79,ESE,107,0.0,3.0,88,0.00,,SCT110,0.00,0.00,VWS V14.01,2013-06-11 10:00:00,
2013-06-11 05:03:00,69.2,65.8,29.79,ENE,72,0.0,3.0,89,0.00,,CLR,0.00,0.00,VWS V14.01,2013-06-11 10:03:00,
2013-06-11 05:05:00,69.3,65.9,29.79,ESE,121,1.0,4.0,89,0.00,,SCT110,0.00,0.00,VWS V14.01,2013-06-11 10:05:00,
2013-06-11 05:08:00,69.5,66.1,29.79,ESE,111,0.0,2.0,89,0.00,,CLR,0.00,0.00,VWS V14.01,2013-06-11 10:08:00,
2013-06-11 05:10:00,69.4,66.0,29.79,ESE,107,0.0,2.0,89,0.00,,SCT110,0.00,0.00,VWS V14.01,2013-06-11 10:10:00,
2013-06-11 05:13:00,69.3,65.9,29.79,ESE,107,0.0,1.0,89,0.00,,CLR,0.00,0.00,VWS V14.01,2013-06-11 10:13:00,
2013-06-11 05:15:00,69.3,65.9,29.79,ESE,107,0.0,1.0,89,0.00,,SCT110,0.00,0.00,VWS V14.01,2013-06-11 10:15:00,
2013-06-11 05:18:00,69.0,65.9,29.79,ESE,107,0.0,1.0,90,0.00,,CLR,0.00,0.00,VWS V14.01,2013-06-11 10:18:00,
2013-06-11 05:20:00,69.0,65.9,29.79,ESE,107,0.0,1.0,90,0.00,,SCT110,0.00,0.00,VWS V14.01,2013-06-11 10:20:00,
2013-06-11 05:23:00,69.1,66.1,29.79,ESE,107,0.0,0.0,90,0.00,,CLR,0.00,0.00,VWS V14.01,2013-06-11 10:23:00,
2013-06-11 05:25:00,69.0,65.9,29.79,ESE,107,1.0,1.0,90,0.00,,SCT110,0.00,0.00,VWS V14.01,2013-06-11 10:25:00,
2013-06-11 05:28:00,69.3,66.2,29.79,East,85,0.0,3.0,90,0.00,,CLR,0.00,0.00,VWS V14.01,2013-06-11 10:28:00,
2013-06-11 05:30:00,69.7,66.3,29.79,East,85,0.0,3.0,89,0.00,,SCT110,0.00,0.00,VWS V14.01,2013-06-11 10:30:00,
2013-06-11 05:33:00,69.9,66.2,29.79,East,86,0.0,2.0,88,0.00,,CLR,0.00,0.00,VWS V14.01,2013-06-11 10:33:00,
2013-06-11 05:35:00,69.8,66.1,29.79,East,83,0.0,2.0,88,0.00,,SCT110,0.00,0.00,VWS V14.01,2013-06-11 10:35:00,
2013-06-11 05:38:00,69.8,66.1,29.79,East,83,0.0,1.0,88,0.00,,CLR,0.00,0.00,VWS V14.01,2013-06-11 10:38:00,
2013-06-11 05:40:00,69.7,65.7,29.79,SE,144,1.0,1.0,87,0.00,,SCT110,0.00,0.00,VWS V14.01,2013-06-11 10:40:00,
2013-06-11 05:43:00,69.3,65.6,29.79,ESE,121,0.0,2.0,88,0.00,,CLR,0.00,0.00,VWS V14.01,2013-06-11 10:43:00,
2013-06-11 05:45:00,69.0,65.3,29.79,ESE,121,0.0,2.0,88,0.00,,SCT110,0.00,0.00,VWS V14.01,2013-06-11 10:45:00,
2013-06-11 05:48:00,68.8,65.4,29.79,ESE,107,0.0,2.0,89,0.00,,CLR,0.00,0.00,VWS V14.01,2013-06-11 10:48:00,
2013-06-11 05:50:00,68.7,65.3,29.79,ESE,107,0.0,2.0,89,0.00,,SCT110,0.00,0.00,VWS V14.01,2013-06-11 10:50:00,
2013-06-11 05:54:00,67.8,64.4,29.79,ESE,107,0.0,1.0,89,0.00,,CLR,0.00,0.00,VWS V14.01,2013-06-11 10:54:00,
2013-06-11 05:55:00,67.5,64.5,29.79,East,95,1.0,2.0,90,0.00,,SCT110,0.00,0.00,VWS V14.01,2013-06-11 10:55:00,
2013-06-11 05:59:00,67.7,65.3,29.79,East,94,0.0,2.0,92,0.00,,CLR,0.00,0.00,VWS V14.01,2013-06-11 10:59:00,
2013-06-11 06:00:00,67.9,65.2,29.80,East,94,0.0,2.0,91,0.00,,SCT110,0.00,0.00,VWS V14.01,2013-06-11 11:00:00,
2013-06-11 06:04:00,68.1,65.1,29.80,East,97,0.0,1.0,90,0.00,,CLR,0.00,5.00,VWS V14.01,2013-06-11 11:04:00,
2013-06-11 06:05:00,68.1,65.1,29.80,East,92,0.0,1.0,90,0.00,,SCT110,0.00,5.00,VWS V14.01,2013-06-11 11:05:00,
2013-06-11 06:09:00,67.6,64.2,29.80,East,92,0.0,1.0,89,0.00,,CLR,0.00,5.00,VWS V14.01,2013-06-11 11:09:00,
2013-06-11 06:10:00,67.4,64.4,29.80,East,92,0.0,1.0,90,0.00,,SCT110,0.00,5.00,VWS V14.01,2013-06-11 11:10:00,
2013-06-11 06:14:00,67.3,64.6,29.80,East,92,0.0,1.0,91,0.00,,CLR,0.00,7.00,VWS V14.01,2013-06-11 11:14:00,
2013-06-11 06:15:00,67.2,64.5,29.81,East,92,0.0,1.0,91,0.00,,SCT110,0.00,7.00,VWS V14.01,2013-06-11 11:15:00,
2013-06-11 06:19:00,67.4,65.0,29.81,East,92,0.0,1.0,92,0.00,,CLR,0.00,9.00,VWS V14.01,2013-06-11 11:19:00,
2013-06-11 06:20:00,67.6,65.2,29.81,East,92,0.0,1.0,92,0.00,,SCT110,0.00,9.00,VWS V14.01,2013-06-11 11:20:00,
2013-06-11 06:24:00,68.1,65.1,29.81,East,92,0.0,1.0,90,0.00,,CLR,0.00,12.00,VWS V14.01,2013-06-11 11:24:00,
2013-06-11 06:25:00,68.0,65.3,29.81,East,92,0.0,1.0,91,0.00,,SCT110,0.00,12.00,VWS V14.01,2013-06-11 11:25:00,
2013-06-11 06:29:00,68.6,65.9,29.81,East,92,0.0,2.0,91,0.00,,CLR,0.00,12.00,VWS V14.01,2013-06-11 11:29:00,
2013-06-11 06:30:00,68.8,65.8,29.81,East,92,0.0,2.0,90,0.00,,SCT110,0.00,14.00,VWS V14.01,2013-06-11 11:30:00,
2013-06-11 06:34:00,69.2,66.2,29.81,SSE,163,0.0,2.0,90,0.00,,CLR,0.00,14.00,VWS V14.01,2013-06-11 11:34:00,
2013-06-11 06:35:00,69.3,65.9,29.81,SSE,150,1.0,2.0,89,0.00,,SCT110,0.00,16.00,VWS V14.01,2013-06-11 11:35:00,
2013-06-11 06:39:00,69.5,66.1,29.81,SSE,163,0.0,2.0,89,0.00,,CLR,0.00,16.00,VWS V14.01,2013-06-11 11:39:00,
2013-06-11 06:40:00,69.5,66.1,29.81,SSE,163,0.0,2.0,89,0.00,,SCT110,0.00,18.00,VWS V14.01,2013-06-11 11:40:00,
2013-06-11 06:44:00,69.6,66.2,29.81,SE,130,0.0,2.0,89,0.00,,CLR,0.00,18.00,VWS V14.01,2013-06-11 11:44:00,
2013-06-11 06:45:00,69.7,66.3,29.82,SW,219,0.0,2.0,89,0.00,,SCT110,0.00,18.00,VWS V14.01,2013-06-11 11:45:00,
2013-06-11 06:49:00,69.5,66.1,29.82,SW,219,0.0,1.0,89,0.00,,CLR,0.00,19.00,VWS V14.01,2013-06-11 11:49:00,
2013-06-11 06:50:00,69.5,66.1,29.82,SW,219,0.0,1.0,89,0.00,,SCT110,0.00,19.00,VWS V14.01,2013-06-11 11:50:00,
2013-06-11 06:54:00,69.4,66.0,29.82,South,171,0.0,1.0,89,0.00,,CLR,0.00,21.00,VWS V14.01,2013-06-11 11:54:00,
2013-06-11 06:55:00,69.4,66.0,29.82,East,88,0.0,3.0,89,0.00,,SCT110,0.00,21.00,VWS V14.01,2013-06-11 11:55:00,
2013-06-11 06:59:00,69.4,66.0,29.82,East,91,0.0,1.0,89,0.00,,CLR,0.00,21.00,VWS V14.01,2013-06-11 11:59:00,
2013-06-11 07:00:00,69.3,65.9,29.82,East,91,0.0,1.0,89,0.00,,SCT110,0.00,21.00,VWS V14.01,2013-06-11 12:00:00,
2013-06-11 07:04:00,69.4,66.0,29.82,East,91,0.0,1.0,89,0.00,,CLR,0.00,23.00,VWS V14.01,2013-06-11 12:04:00,
2013-06-11 07:05:00,69.3,65.9,29.82,East,91,0.0,1.0,89,0.00,,SCT110,0.00,23.00,VWS V14.01,2013-06-11 12:05:00,
2013-06-11 07:09:00,69.5,66.1,29.82,East,91,0.0,1.0,89,0.00,,CLR,0.00,25.00,VWS V14.01,2013-06-11 12:09:00,
2013-06-11 07:10:00,69.5,66.1,29.82,East,91,0.0,1.0,89,0.00,,SCT110,0.00,25.00,VWS V14.01,2013-06-11 12:10:00,
2013-06-11 07:14:00,69.7,66.6,29.82,East,91,0.0,2.0,90,0.00,,CLR,0.00,25.00,VWS V14.01,2013-06-11 12:14:00,
2013-06-11 07:15:00,69.7,66.6,29.82,East,91,0.0,2.0,90,0.00,,SCT110,0.00,26.00,VWS V14.01,2013-06-11 12:15:00,
2013-06-11 07:19:00,70.2,66.8,29.82,East,91,0.0,1.0,89,0.00,,CLR,0.00,26.00,VWS V14.01,2013-06-11 12:19:00,
2013-06-11 07:20:00,70.2,66.8,29.82,East,91,0.0,1.0,89,0.00,,SCT110,0.00,26.00,VWS V14.01,2013-06-11 12:20:00,
2013-06-11 07:25:00,70.7,67.0,29.82,East,91,0.0,0.0,88,0.00,,CLR,0.00,28.00,VWS V14.01,2013-06-11 12:25:00,
2013-06-11 07:30:00,71.1,67.4,29.82,East,91,0.0,2.0,88,0.00,,CLR,0.00,30.00,VWS V14.01,2013-06-11 12:30:00,
2013-06-11 07:35:00,71.4,67.3,29.82,West,267,2.0,3.0,87,0.00,,CLR,0.00,30.00,VWS V14.01,2013-06-11 12:35:00,
2013-06-11 07:40:00,71.9,67.5,29.82,SSW,202,0.0,3.0,86,0.00,,CLR,0.00,32.00,VWS V14.01,2013-06-11 12:40:00,
2013-06-11 07:45:00,72.1,67.7,29.82,SSW,202,0.0,1.0,86,0.00,,CLR,0.00,33.00,VWS V14.01,2013-06-11 12:45:00,
2013-06-11 07:50:00,72.5,67.7,29.82,NNE,12,2.0,3.0,85,0.00,,CLR,0.00,33.00,VWS V14.01,2013-06-11 12:50:00,
2013-06-11 07:55:00,72.9,68.1,29.82,West,265,0.0,3.0,85,0.00,,CLR,0.00,35.00,VWS V14.01,2013-06-11 12:55:00,
2013-06-11 08:00:00,73.3,68.2,29.83,NE,39,0.0,2.0,84,0.00,,CLR,0.00,39.00,VWS V14.01,2013-06-11 13:00:00,
2013-06-11 08:05:00,73.6,68.5,29.83,NNE,20,0.0,4.0,84,0.00,,CLR,0.00,40.00,VWS V14.01,2013-06-11 13:05:00,
2013-06-11 08:10:00,73.9,68.1,29.83,WSW,249,5.0,5.0,82,0.00,,CLR,0.00,42.00,VWS V14.01,2013-06-11 13:10:00,
2013-06-11 08:15:00,74.3,68.8,29.84,West,276,3.0,3.0,83,0.00,,CLR,0.00,54.00,VWS V14.01,2013-06-11 13:15:00,
2013-06-11 08:20:00,74.7,68.8,29.84,SW,217,2.0,3.0,82,0.00,,CLR,0.00,51.00,VWS V14.01,2013-06-11 13:20:00,
2013-06-11 08:25:00,75.1,68.5,29.84,WSW,256,0.0,4.0,80,0.00,,CLR,0.00,53.00,VWS V14.01,2013-06-11 13:25:00,
2013-06-11 08:30:00,75.3,69.1,29.84,West,275,0.0,2.0,81,0.00,,CLR,0.00,63.00,VWS V14.01,2013-06-11 13:30:00,
2013-06-11 08:35:00,75.5,69.6,29.84,NE,41,0.0,3.0,82,0.00,,CLR,0.00,104.00,VWS V14.01,2013-06-11 13:35:00,
2013-06-11 08:40:00,75.9,69.3,29.84,WNW,286,0.0,3.0,80,0.00,,CLR,0.00,466.00,VWS V14.01,2013-06-11 13:40:00,
2013-06-11 08:45:00,76.4,70.1,29.85,NW,306,0.0,3.0,81,0.00,,CLR,0.00,485.00,VWS V14.01,2013-06-11 13:45:00,
2013-06-11 08:50:00,76.7,69.7,29.85,WSW,248,2.0,4.0,79,0.00,,CLR,0.00,499.00,VWS V14.01,2013-06-11 13:50:00,
2013-06-11 08:55:00,77.2,70.9,29.85,WSW,248,0.0,3.0,81,0.00,,CLR,0.00,559.00,VWS V14.01,2013-06-11 13:55:00,
2013-06-11 09:00:00,77.6,70.6,29.85,WNW,288,0.0,3.0,79,0.00,,CLR,0.00,534.00,VWS V14.01,2013-06-11 14:00:00,
2013-06-11 09:05:00,77.8,71.1,29.85,West,273,0.0,3.0,80,0.00,,CLR,0.00,543.00,VWS V14.01,2013-06-11 14:05:00,
2013-06-11 09:10:00,78.3,70.1,29.85,SW,224,3.0,3.0,76,0.00,,CLR,0.00,561.00,VWS V14.01,2013-06-11 14:10:00,
2013-06-11 09:15:00,78.6,70.8,29.85,SW,227,0.0,3.0,77,0.00,,CLR,0.00,585.00,VWS V14.01,2013-06-11 14:15:00,
2013-06-11 09:20:00,78.9,70.7,29.85,South,178,1.0,1.0,76,0.00,,CLR,0.00,598.00,VWS V14.01,2013-06-11 14:20:00,
2013-06-11 09:25:00,79.4,70.4,29.85,WSW,243,0.0,1.0,74,0.00,,CLR,0.00,633.00,VWS V14.01,2013-06-11 14:25:00,
2013-06-11 09:30:00,79.9,70.5,29.86,WSW,252,3.0,3.0,73,0.00,,CLR,0.00,555.00,VWS V14.01,2013-06-11 14:30:00,
2013-06-11 09:35:00,80.1,70.7,29.86,WSW,246,1.0,1.0,73,0.00,,CLR,0.00,656.00,VWS V14.01,2013-06-11 14:35:00,
2013-06-11 09:40:00,80.6,71.6,29.86,WSW,250,1.0,2.0,74,0.00,,CLR,0.00,679.00,VWS V14.01,2013-06-11 14:40:00,
2013-06-11 09:45:00,81.0,71.9,29.85,WSW,250,0.0,0.0,74,0.00,,CLR,0.00,675.00,VWS V14.01,2013-06-11 14:45:00,
2013-06-11 09:50:00,81.4,72.7,29.85,West,261,0.0,2.0,75,0.00,,SCT110,0.00,592.00,VWS V14.01,2013-06-11 14:50:00,
2013-06-11 09:51:00,81.4,71.9,29.85,West,261,0.0,1.0,73,0.00,,CLR,0.00,585.00,VWS V14.01,2013-06-11 14:51:00,
2013-06-11 09:55:00,81.5,70.4,29.85,SW,218,1.0,4.0,69,0.00,,SCT110,0.00,591.00,VWS V14.01,2013-06-11 14:55:00,
2013-06-11 09:56:00,81.5,71.2,29.85,SW,218,0.0,2.0,71,0.00,,CLR,0.00,559.00,VWS V14.01,2013-06-11 14:56:00,
2013-06-11 10:00:00,81.8,71.5,29.85,West,274,2.0,4.0,71,0.00,,SCT110,0.00,446.00,VWS V14.01,2013-06-11 15:00:00,
2013-06-11 10:01:00,81.6,71.3,29.85,WSW,250,6.0,6.0,71,0.00,,CLR,0.00,418.00,VWS V14.01,2013-06-11 15:01:00,
2013-06-11 10:05:00,81.5,70.8,29.85,WNW,287,2.0,6.0,70,0.00,,SCT110,0.00,487.00,VWS V14.01,2013-06-11 15:05:00,
2013-06-11 10:06:00,81.5,71.2,29.85,WNW,286,0.0,3.0,71,0.00,,CLR,0.00,501.00,VWS V14.01,2013-06-11 15:06:00,
2013-06-11 10:10:00,81.6,71.7,29.85,WNW,286,1.0,3.0,72,0.00,,SCT110,0.00,675.00,VWS V14.01,2013-06-11 15:10:00,
2013-06-11 10:11:00,81.7,71.8,29.85,SW,233,0.0,4.0,72,0.00,,CLR,0.00,666.00,VWS V14.01,2013-06-11 15:11:00,
2013-06-11 10:15:00,82.6,70.5,29.85,SW,219,2.0,7.0,67,0.00,,SCT110,0.00,779.00,VWS V14.01,2013-06-11 15:15:00,
2013-06-11 10:16:00,82.8,71.2,29.85,SSW,213,2.0,5.0,68,0.00,,CLR,0.00,763.00,VWS V14.01,2013-06-11 15:16:00,
2013-06-11 10:20:00,83.2,71.6,29.85,SW,236,3.0,6.0,68,0.00,,SCT110,0.00,824.00,VWS V14.01,2013-06-11 15:20:00,
2013-06-11 10:21:00,83.3,71.2,29.85,West,265,2.0,4.0,67,0.00,,CLR,0.00,807.00,VWS V14.01,2013-06-11 15:21:00,
2013-06-11 10:25:00,83.5,70.9,29.85,SW,221,4.0,4.0,66,0.00,,SCT110,0.00,670.00,VWS V14.01,2013-06-11 15:25:00,
2013-06-11 10:26:00,83.5,71.8,29.85,SE,146,1.0,6.0,68,0.00,,CLR,0.00,587.00,VWS V14.01,2013-06-11 15:26:00,
2013-06-11 10:30:00,83.4,70.4,29.85,WSW,238,0.0,6.0,65,0.00,,SCT110,0.00,585.00,VWS V14.01,2013-06-11 15:30:00,
2013-06-11 10:31:00,83.4,70.4,29.85,WSW,246,1.0,4.0,65,0.00,,CLR,0.00,561.00,VWS V14.01,2013-06-11 15:31:00,
2013-06-11 10:35:00,83.6,72.8,29.85,WSW,256,1.0,4.0,70,0.00,,SCT110,0.00,578.00,VWS V14.01,2013-06-11 15:35:00,
2013-06-11 10:36:00,83.7,72.0,29.85,West,259,2.0,2.0,68,0.00,,CLR,0.00,561.00,VWS V14.01,2013-06-11 15:36:00,
2013-06-11 10:40:00,83.9,71.8,29.85,SSE,151,3.0,4.0,67,0.00,,SCT110,0.00,765.00,VWS V14.01,2013-06-11 15:40:00,
2013-06-11 10:41:00,84.0,72.7,29.85,SW,232,1.0,3.0,69,0.00,,CLR,0.00,758.00,VWS V14.01,2013-06-11 15:41:00,
2013-06-11 10:45:00,84.4,70.9,29.85,SSW,194,0.0,4.0,64,0.00,,SCT110,0.00,780.00,VWS V14.01,2013-06-11 15:45:00,
2013-06-11 10:47:00,84.5,72.8,29.85,West,263,0.0,4.0,68,0.00,,CLR,0.00,793.00,VWS V14.01,2013-06-11 15:47:00,
2013-06-11 10:50:00,84.7,73.4,29.85,West,278,0.0,5.0,69,0.00,,SCT110,0.00,823.00,VWS V14.01,2013-06-11 15:50:00,
2013-06-11 10:52:00,84.8,70.3,29.85,SW,229,5.0,7.0,62,0.00,,CLR,0.00,823.00,VWS V14.01,2013-06-11 15:52:00,
2013-06-11 10:55:00,84.9,71.8,29.85,ENE,61,2.0,7.0,65,0.00,,SCT110,0.00,675.00,VWS V14.01,2013-06-11 15:55:00,
2013-06-11 10:57:00,84.9,71.8,29.85,West,264,3.0,4.0,65,0.00,,CLR,0.00,615.00,VWS V14.01,2013-06-11 15:57:00,
2013-06-11 11:00:00,84.8,72.6,29.85,WSW,256,0.0,4.0,67,0.00,,SCT110,0.00,628.00,VWS V14.01,2013-06-11 16:00:00,
2013-06-11 11:02:00,84.7,71.2,29.85,WSW,238,1.0,4.0,64,0.00,,CLR,0.00,482.00,VWS V14.01,2013-06-11 16:02:00,
2013-06-11 11:05:00,84.5,71.9,29.85,WNW,302,1.0,4.0,66,0.00,,SCT110,0.00,552.00,VWS V14.01,2013-06-11 16:05:00,
2013-06-11 11:07:00,84.4,70.0,29.85,WNW,288,2.0,5.0,62,0.00,,CLR,0.00,726.00,VWS V14.01,2013-06-11 16:07:00,
2013-06-11 11:10:00,84.6,71.6,29.85,SW,234,0.0,5.0,65,0.00,,SCT110,0.00,838.00,VWS V14.01,2013-06-11 16:10:00,
2013-06-11 11:12:00,84.8,70.3,29.85,WSW,239,2.0,5.0,62,0.00,,CLR,0.00,812.00,VWS V14.01,2013-06-11 16:12:00,
2013-06-11 11:15:00,85.3,71.8,29.85,WSW,246,4.0,7.0,64,0.00,,SCT110,0.00,863.00,VWS V14.01,2013-06-11 16:15:00,
2013-06-11 11:17:00,85.4,70.4,29.85,WSW,252,2.0,5.0,61,0.00,,CLR,0.00,877.00,VWS V14.01,2013-06-11 16:17:00,
2013-06-11 11:20:00,85.7,70.7,29.85,West,261,5.0,5.0,61,0.00,,SCT110,0.00,847.00,VWS V14.01,2013-06-11 16:20:00,
2013-06-11 11:22:00,85.7,71.2,29.85,WSW,244,0.0,5.0,62,0.00,,CLR,0.00,788.00,VWS V14.01,2013-06-11 16:22:00,
2013-06-11 11:25:00,85.7,71.2,29.85,West,265,0.0,8.0,62,0.00,,SCT110,0.00,846.00,VWS V14.01,2013-06-11 16:25:00,
2013-06-11 11:27:00,85.7,70.7,29.85,WSW,252,0.0,4.0,61,0.00,,CLR,0.00,803.00,VWS V14.01,2013-06-11 16:27:00,
2013-06-11 11:30:00,85.9,71.8,29.85,West,269,2.0,6.0,63,0.00,,SCT110,0.00,893.00,VWS V14.01,2013-06-11 16:30:00,
2013-06-11 11:32:00,86.2,71.2,29.85,WSW,251,4.0,5.0,61,0.00,,CLR,0.00,902.00,VWS V14.01,2013-06-11 16:32:00,
2013-06-11 11:35:00,86.6,73.9,29.85,SSW,196,2.0,5.0,66,0.00,,SCT110,0.00,895.00,VWS V14.01,2013-06-11 16:35:00,
2013-06-11 11:37:00,86.9,72.3,29.85,West,272,2.0,5.0,62,0.00,,CLR,0.00,914.00,VWS V14.01,2013-06-11 16:37:00,
2013-06-11 11:40:00,87.1,72.5,29.85,WSW,258,5.0,5.0,62,0.00,,SCT110,0.00,930.00,VWS V14.01,2013-06-11 16:40:00,
2013-06-11 11:42:00,86.8,68.7,29.85,West,270,5.0,6.0,55,0.00,,CLR,0.00,529.00,VWS V14.01,2013-06-11 16:42:00,
2013-06-11 11:45:00,86.3,68.8,29.85,SW,230,3.0,7.0,56,0.00,,SCT110,0.00,580.00,VWS V14.01,2013-06-11 16:45:00,
2013-06-11 11:47:00,85.8,69.8,29.85,SSE,151,2.0,6.0,59,0.00,,CLR,0.00,580.00,VWS V14.01,2013-06-11 16:47:00,
2013-06-11 11:50:00,85.1,69.2,29.85,SSE,159,5.0,6.0,59,0.00,,SCT110,0.00,288.00,VWS V14.01,2013-06-11 16:50:00,
2013-06-11 11:52:00,84.8,68.9,29.85,WSW,256,2.0,5.0,59,0.00,,CLR,0.00,316.00,VWS V14.01,2013-06-11 16:52:00,
2013-06-11 11:55:00,84.6,70.6,29.85,WSW,255,0.0,5.0,63,0.00,,SCT110,0.00,316.00,VWS V14.01,2013-06-11 16:55:00,
2013-06-11 11:57:00,84.4,69.5,29.85,WSW,240,0.0,5.0,61,0.00,,CLR,0.00,476.00,VWS V14.01,2013-06-11 16:57:00,
2013-06-11 12:00:00,84.8,70.8,29.85,WSW,240,0.0,5.0,63,0.00,,SCT110,0.00,670.00,VWS V14.01,2013-06-11 17:00:00,
2013-06-11 12:03:00,85.1,70.6,29.85,WSW,240,0.0,3.0,62,0.00,,CLR,0.00,638.00,VWS V14.01,2013-06-11 17:03:00,
2013-06-11 12:05:00,85.6,72.0,29.85,WSW,240,2.0,3.0,64,0.00,,SCT110,0.00,578.00,VWS V14.01,2013-06-11 17:05:00,
2013-06-11 12:08:00,85.8,70.8,29.85,SW,236,0.0,3.0,61,0.00,,CLR,0.00,698.00,VWS V14.01,2013-06-11 17:08:00,
2013-06-11 12:10:00,86.0,72.9,29.85,WSW,258,3.0,4.0,65,0.00,,SCT110,0.00,675.00,VWS V14.01,2013-06-11 17:10:00,
2013-06-11 12:13:00,86.2,72.6,29.85,WSW,242,0.0,4.0,64,0.00,,CLR,0.00,661.00,VWS V14.01,2013-06-11 17:13:00,
2013-06-11 12:15:00,86.5,72.4,29.85,WSW,242,1.0,4.0,63,0.00,,SCT110,0.00,858.00,VWS V14.01,2013-06-11 17:15:00,
2013-06-11 12:18:00,87.0,73.8,29.85,SW,215,1.0,3.0,65,0.00,,CLR,0.00,814.00,VWS V14.01,2013-06-11 17:18:00,
2013-06-11 12:20:00,87.3,72.7,29.85,West,263,3.0,3.0,62,0.00,,SCT110,0.00,933.00,VWS V14.01,2013-06-11 17:20:00,
2013-06-11 12:23:00,87.6,71.5,29.85,South,190,1.0,3.0,59,0.00,,CLR,0.00,1002.00,VWS V14.01,2013-06-11 17:23:00,
2013-06-11 12:25:00,88.0,70.3,29.85,SSE,155,0.0,5.0,56,0.00,,SCT110,0.00,1081.00,VWS V14.01,2013-06-11 17:25:00,
2013-06-11 12:28:00,88.4,72.8,29.85,SW,218,0.0,4.0,60,0.00,,CLR,0.00,1093.00,VWS V14.01,2013-06-11 17:28:00,
2013-06-11 12:30:00,88.9,70.1,29.84,NNW,328,3.0,8.0,54,0.00,,SCT110,0.00,1104.00,VWS V14.01,2013-06-11 17:30:00,
2013-06-11 12:33:00,89.1,70.8,29.84,WNW,291,5.0,6.0,55,0.00,,CLR,0.00,976.00,VWS V14.01,2013-06-11 17:33:00,
2013-06-11 12:35:00,89.0,69.7,29.84,NW,304,4.0,6.0,53,0.00,,SCT110,0.00,953.00,VWS V14.01,2013-06-11 17:35:00,
2013-06-11 12:38:00,88.7,68.8,29.84,WNW,292,3.0,5.0,52,0.00,,CLR,0.00,867.00,VWS V14.01,2013-06-11 17:38:00,
2013-06-11 12:40:00,88.6,69.3,29.84,West,276,2.0,7.0,53,0.00,,SCT110,0.00,867.00,VWS V14.01,2013-06-11 17:40:00,
2013-06-11 12:43:00,88.5,69.2,29.84,West,268,3.0,5.0,53,0.00,,CLR,0.00,795.00,VWS V14.01,2013-06-11 17:43:00,
2013-06-11 12:45:00,88.5,69.2,29.84,WNW,290,3.0,5.0,53,0.00,,SCT110,0.00,909.00,VWS V14.01,2013-06-11 17:45:00,
2013-06-11 12:48:00,88.7,67.7,29.84,WNW,287,5.0,8.0,50,0.00,,CLR,0.00,1009.00,VWS V14.01,2013-06-11 17:48:00,
2013-06-11 12:50:00,88.8,66.6,29.84,West,279,5.0,8.0,48,0.00,,SCT110,0.00,970.00,VWS V14.01,2013-06-11 17:50:00,
2013-06-11 12:53:00,89.2,70.4,29.84,WSW,247,1.0,6.0,54,0.00,,CLR,0.00,937.00,VWS V14.01,2013-06-11 17:53:00,
2013-06-11 12:55:00,89.3,66.4,29.84,SW,229,3.0,7.0,47,0.00,,SCT110,0.00,916.00,VWS V14.01,2013-06-11 17:55:00,
2013-06-11 12:58:00,89.4,65.3,29.84,West,276,4.0,8.0,45,0.00,,CLR,0.00,816.00,VWS V14.01,2013-06-11 17:58:00,
2013-06-11 13:00:00,89.5,66.6,29.84,WSW,254,4.0,8.0,47,0.00,,SCT110,0.00,810.00,VWS V14.01,2013-06-11 18:00:00,
2013-06-11 13:03:00,89.5,64.7,29.84,WSW,257,2.0,7.0,44,0.00,,CLR,0.00,884.00,VWS V14.01,2013-06-11 18:03:00,
2013-06-11 13:05:00,89.5,64.7,29.84,NW,311,1.0,7.0,44,0.00,,SCT110,0.00,775.00,VWS V14.01,2013-06-11 18:05:00,
2013-06-11 13:08:00,89.4,65.3,29.84,West,279,2.0,6.0,45,0.00,,CLR,0.00,735.00,VWS V14.01,2013-06-11 18:08:00,
2013-06-11 13:10:00,89.4,65.3,29.84,SSW,211,1.0,6.0,45,0.00,,SCT110,0.00,793.00,VWS V14.01,2013-06-11 18:10:00,
2013-06-11 13:14:00,89.5,63.4,29.84,NW,305,5.0,9.0,42,0.00,,CLR,0.00,844.00,VWS V14.01,2013-06-11 18:14:00,
2013-06-11 13:15:00,89.5,62.0,29.83,South,187,2.0,9.0,40,0.00,,SCT110,0.00,889.00,VWS V14.01,2013-06-11 18:15:00,
2013-06-11 13:19:00,89.6,64.8,29.83,SW,220,1.0,6.0,44,0.00,,CLR,0.00,844.00,VWS V14.01,2013-06-11 18:19:00,
2013-06-11 13:20:00,89.7,65.6,29.83,West,281,5.0,7.0,45,0.00,,SCT110,0.00,816.00,VWS V14.01,2013-06-11 18:20:00,
2013-06-11 13:24:00,89.7,64.2,29.83,NW,323,2.0,7.0,43,0.00,,CLR,0.00,772.00,VWS V14.01,2013-06-11 18:24:00,
2013-06-11 13:25:00,89.7,64.9,29.83,WNW,295,1.0,7.0,44,0.00,,SCT110,0.00,766.00,VWS V14.01,2013-06-11 18:25:00,
2013-06-11 13:29:00,89.6,64.8,29.83,WNW,288,2.0,7.0,44,0.00,,CLR,0.00,809.00,VWS V14.01,2013-06-11 18:29:00,
2013-06-11 13:30:00,89.6,66.7,29.83,West,267,1.0,7.0,47,0.00,,SCT110,0.00,788.00,VWS V14.01,2013-06-11 18:30:00,
2013-06-11 13:34:00,89.5,67.8,29.83,WSW,253,2.0,8.0,49,0.00,,CLR,0.00,1000.00,VWS V14.01,2013-06-11 18:34:00,
2013-06-11 13:35:00,89.6,65.5,29.83,SW,236,6.0,8.0,45,0.00,,SCT110,0.00,1000.00,VWS V14.01,2013-06-11 18:35:00,
2013-06-11 13:39:00,89.9,65.7,29.83,West,264,4.0,8.0,45,0.00,,CLR,0.00,986.00,VWS V14.01,2013-06-11 18:39:00,
2013-06-11 13:40:00,90.0,65.2,29.83,NW,309,4.0,8.0,44,0.00,,SCT110,0.00,986.00,VWS V14.01,2013-06-11 18:40:00,
2013-06-11 13:44:00,90.3,64.8,29.83,SSE,149,3.0,7.0,43,0.00,,CLR,0.00,984.00,VWS V14.01,2013-06-11 18:44:00,
2013-06-11 13:45:00,90.4,68.1,29.83,SW,216,3.0,7.0,48,0.00,,SCT110,0.00,984.00,VWS V14.01,2013-06-11 18:45:00,
2013-06-11 13:49:00,90.9,67.9,29.83,West,264,3.0,4.0,47,0.00,,CLR,0.00,984.00,VWS V14.01,2013-06-11 18:49:00,
2013-06-11 13:50:00,90.9,67.3,29.83,SSW,196,1.0,4.0,46,0.00,,SCT110,0.00,984.00,VWS V14.01,2013-06-11 18:50:00,
2013-06-11 13:54:00,90.9,69.1,29.83,WSW,254,2.0,7.0,49,0.00,,CLR,0.00,977.00,VWS V14.01,2013-06-11 18:54:00,
2013-06-11 13:55:00,90.8,66.6,29.83,West,271,3.0,7.0,45,0.00,,SCT110,0.00,977.00,VWS V14.01,2013-06-11 18:55:00,
2013-06-11 13:59:00,90.9,66.6,29.82,NW,318,2.0,6.0,45,0.00,,CLR,0.00,972.00,VWS V14.01,2013-06-11 18:59:00,
2013-06-11 14:00:00,90.9,67.3,29.82,NW,304,1.0,6.0,46,0.00,,SCT110,0.00,972.00,VWS V14.01,2013-06-11 19:00:00,
2013-06-11 14:04:00,91.1,66.2,29.82,WSW,239,1.0,8.0,44,0.00,,CLR,0.00,967.00,VWS V14.01,2013-06-11 19:04:00,
2013-06-11 14:05:00,91.2,68.2,29.82,NW,325,4.0,8.0,47,0.00,,SCT110,0.00,965.00,VWS V14.01,2013-06-11 19:05:00,
2013-06-11 14:09:00,91.0,64.1,29.82,WSW,252,5.0,8.0,41,0.00,,CLR,0.00,962.00,VWS V14.01,2013-06-11 19:09:00,
2013-06-11 14:10:00,91.0,64.1,29.82,West,267,2.0,8.0,41,0.00,,SCT110,0.00,962.00,VWS V14.01,2013-06-11 19:10:00,
2013-06-11 14:14:00,91.0,66.7,29.81,West,271,6.0,7.0,45,0.00,,CLR,0.00,954.00,VWS V14.01,2013-06-11 19:14:00,
2013-06-11 14:15:00,91.0,66.1,29.81,West,263,5.0,7.0,44,0.00,,SCT110,0.00,954.00,VWS V14.01,2013-06-11 19:15:00,
2013-06-11 14:20:00,91.3,65.0,29.81,SSE,152,1.0,7.0,42,0.00,,CLR,0.00,951.00,VWS V14.01,2013-06-11 19:20:00,
2013-06-11 14:25:00,91.7,68.6,29.81,East,90,3.0,7.0,47,0.00,,CLR,0.00,946.00,VWS V14.01,2013-06-11 19:25:00,
2013-06-11 14:30:00,91.6,67.3,29.81,West,266,0.0,7.0,45,0.00,,CLR,0.00,942.00,VWS V14.01,2013-06-11 19:30:00,
2013-06-11 14:35:00,91.7,67.4,29.81,WSW,242,4.0,7.0,45,0.00,,CLR,0.00,937.00,VWS V14.01,2013-06-11 19:35:00,
2013-06-11 14:40:00,91.5,64.5,29.81,West,267,0.0,9.0,41,0.00,,CLR,0.00,926.00,VWS V14.01,2013-06-11 19:40:00,
2013-06-11 14:45:00,91.5,64.5,29.81,NW,316,5.0,8.0,41,0.00,,CLR,0.00,921.00,VWS V14.01,2013-06-11 19:45:00,
2013-06-11 14:50:00,91.7,68.0,29.81,SSW,205,2.0,10.0,46,0.00,,CLR,0.00,907.00,VWS V14.01,2013-06-11 19:50:00,
2013-06-11 14:55:00,91.8,64.1,29.81,NW,318,3.0,9.0,40,0.00,,CLR,0.00,896.00,VWS V14.01,2013-06-11 19:55:00,
2013-06-11 15:00:00,91.8,64.8,29.80,West,270,2.0,9.0,41,0.00,,CLR,0.00,886.00,VWS V14.01,2013-06-11 20:00:00,
2013-06-11 15:05:00,91.7,65.4,29.80,SW,227,8.0,8.0,42,0.00,,CLR,0.00,872.00,VWS V14.01,2013-06-11 20:05:00,
2013-06-11 15:10:00,91.6,63.2,29.80,West,260,2.0,2.0,39,0.00,,CLR,0.00,849.00,VWS V14.01,2013-06-11 20:10:00,
2013-06-11 15:15:00,91.7,64.7,29.80,West,269,2.0,4.0,41,0.00,,CLR,0.00,854.00,VWS V14.01,2013-06-11 20:15:00,
2013-06-11 15:20:00,92.2,65.1,29.80,WSW,252,1.0,5.0,41,0.00,,CLR,0.00,861.00,VWS V14.01,2013-06-11 20:20:00,
2013-06-11 15:25:00,92.4,66.0,29.80,West,269,1.0,2.0,42,0.00,,CLR,0.00,849.00,VWS V14.01,2013-06-11 20:25:00,
2013-06-11 15:30:00,92.8,68.4,29.80,SSW,213,0.0,5.0,45,0.00,,SCT110,0.00,846.00,VWS V14.01,2013-06-11 20:30:00,
2013-06-11 15:31:00,92.8,67.0,29.80,NW,320,5.0,5.0,43,0.00,,CLR,0.00,846.00,VWS V14.01,2013-06-11 20:31:00,
2013-06-11 15:35:00,92.5,66.8,29.80,SW,215,4.0,6.0,43,0.00,,SCT110,0.00,844.00,VWS V14.01,2013-06-11 20:35:00,
2013-06-11 15:36:00,92.5,66.1,29.80,SSE,163,0.0,4.0,42,0.00,,CLR,0.00,812.00,VWS V14.01,2013-06-11 20:36:00,
2013-06-11 15:40:00,92.3,66.6,29.80,SW,226,1.0,7.0,43,0.00,,SCT110,0.00,800.00,VWS V14.01,2013-06-11 20:40:00,
2013-06-11 15:41:00,92.3,66.6,29.80,WSW,253,0.0,3.0,43,0.00,,CLR,0.00,800.00,VWS V14.01,2013-06-11 20:41:00,
2013-06-11 15:45:00,92.4,64.6,29.79,WNW,284,4.0,8.0,40,0.00,,SCT110,0.00,795.00,VWS V14.01,2013-06-11 20:45:00,
2013-06-11 15:46:00,92.4,63.1,29.79,WNW,301,9.0,9.0,38,0.00,,CLR,0.00,795.00,VWS V14.01,2013-06-11 20:46:00,
2013-06-11 15:50:00,92.1,62.9,29.79,West,260,10.0,10.0,38,0.00,,SCT110,0.00,788.00,VWS V14.01,2013-06-11 20:50:00,
2013-06-11 15:51:00,92.0,62.8,29.79,ENE,78,3.0,10.0,38,0.00,,CLR,0.00,788.00,VWS V14.01,2013-06-11 20:51:00,
2013-06-11 15:55:00,91.9,61.2,29.79,SSE,167,4.0,10.0,36,0.00,,SCT110,0.00,779.00,VWS V14.01,2013-06-11 20:55:00,
2013-06-11 15:56:00,91.9,61.9,29.79,WSW,240,3.0,4.0,37,0.00,,CLR,0.00,780.00,VWS V14.01,2013-06-11 20:56:00,
2013-06-11 16:00:00,91.9,63.4,29.80,SSW,197,5.0,5.0,39,0.00,,SCT110,0.00,772.00,VWS V14.01,2013-06-11 21:00:00,
2013-06-11 16:01:00,91.9,61.9,29.80,SW,229,2.0,5.0,37,0.00,,CLR,0.00,765.00,VWS V14.01,2013-06-11 21:01:00,
2013-06-11 16:05:00,91.9,62.7,29.80,WNW,298,3.0,6.0,38,0.00,,SCT110,0.00,754.00,VWS V14.01,2013-06-11 21:05:00,
2013-06-11 16:06:00,91.9,62.7,29.80,West,276,1.0,4.0,38,0.00,,CLR,0.00,754.00,VWS V14.01,2013-06-11 21:06:00,
2013-06-11 16:10:00,91.9,61.9,29.80,ENE,61,1.0,9.0,37,0.00,,SCT110,0.00,742.00,VWS V14.01,2013-06-11 21:10:00,
2013-06-11 16:11:00,91.9,61.9,29.80,West,273,7.0,7.0,37,0.00,,CLR,0.00,738.00,VWS V14.01,2013-06-11 21:11:00,
2013-06-11 16:15:00,91.9,61.9,29.79,WSW,254,5.0,8.0,37,0.00,,SCT110,0.00,728.00,VWS V14.01,2013-06-11 21:15:00,
2013-06-11 16:16:00,91.9,61.9,29.79,WSW,257,3.0,6.0,37,0.00,,CLR,0.00,726.00,VWS V14.01,2013-06-11 21:16:00,
2013-06-11 16:20:00,91.9,62.7,29.79,West,277,2.0,6.0,38,0.00,,SCT110,0.00,714.00,VWS V14.01,2013-06-11 21:20:00,
2013-06-11 16:21:00,91.9,61.9,29.79,West,281,2.0,3.0,37,0.00,,CLR,0.00,708.00,VWS V14.01,2013-06-11 21:21:00,
2013-06-11 16:25:00,91.9,63.4,29.79,West,259,0.0,9.0,39,0.00,,SCT110,0.00,705.00,VWS V14.01,2013-06-11 21:25:00,
2013-06-11 16:27:00,91.9,64.2,29.79,WSW,257,2.0,2.0,40,0.00,,CLR,0.00,703.00,VWS V14.01,2013-06-11 21:27:00,
2013-06-11 16:30:00,91.9,65.6,29.79,South,177,1.0,7.0,42,0.00,,SCT110,0.00,691.00,VWS V14.01,2013-06-11 21:30:00,
2013-06-11 16:32:00,91.8,64.1,29.79,West,267,0.0,5.0,40,0.00,,CLR,0.00,686.00,VWS V14.01,2013-06-11 21:32:00,
2013-06-11 16:35:00,91.8,64.8,29.79,West,275,0.0,5.0,41,0.00,,SCT110,0.00,677.00,VWS V14.01,2013-06-11 21:35:00,
2013-06-11 16:37:00,91.9,64.9,29.79,WNW,292,0.0,3.0,41,0.00,,CLR,0.00,673.00,VWS V14.01,2013-06-11 21:37:00,
2013-06-11 16:40:00,91.9,64.9,29.79,WNW,296,0.0,4.0,41,0.00,,SCT110,0.00,661.00,VWS V14.01,2013-06-11 21:40:00,
2013-06-11 16:42:00,91.9,68.8,29.79,WNW,294,2.0,2.0,47,0.00,,CLR,0.00,657.00,VWS V14.01,2013-06-11 21:42:00,
2013-06-11 16:45:00,92.2,65.8,29.79,SSW,196,1.0,5.0,42,0.00,,SCT110,0.00,652.00,VWS V14.01,2013-06-11 21:45:00,
2013-06-11 16:47:00,92.1,67.1,29.79,SW,236,3.0,5.0,44,0.00,,CLR,0.00,642.00,VWS V14.01,2013-06-11 21:47:00,
2013-06-11 16:50:00,91.8,64.8,29.79,WSW,241,1.0,6.0,41,0.00,,SCT110,0.00,636.00,VWS V14.01,2013-06-11 21:50:00,
2013-06-11 16:52:00,91.7,62.5,29.79,West,277,3.0,4.0,38,0.00,,CLR,0.00,631.00,VWS V14.01,2013-06-11 21:52:00,
2013-06-11 16:55:00,91.6,63.9,29.79,SW,230,1.0,7.0,40,0.00,,SCT110,0.00,617.00,VWS V14.01,2013-06-11 21:55:00,
2013-06-11 16:57:00,91.6,65.3,29.79,SW,228,2.0,5.0,42,0.00,,CLR,0.00,613.00,VWS V14.01,2013-06-11 21:57:00,
2013-06-11 17:00:00,91.5,68.4,29.79,SW,227,0.0,5.0,47,0.00,,SCT110,0.00,605.00,VWS V14.01,2013-06-11 22:00:00,
2013-06-11 17:02:00,91.5,66.5,29.79,SW,227,0.0,2.0,44,0.00,,CLR,0.00,598.00,VWS V14.01,2013-06-11 22:02:00,
2013-06-11 17:05:00,91.4,65.1,29.79,WSW,248,1.0,3.0,42,0.00,,SCT110,0.00,592.00,VWS V14.01,2013-06-11 22:05:00,
2013-06-11 17:07:00,91.4,64.4,29.79,WNW,289,0.0,5.0,41,0.00,,CLR,0.00,584.00,VWS V14.01,2013-06-11 22:07:00,
2013-06-11 17:10:00,91.3,63.6,29.79,SSE,162,1.0,5.0,40,0.00,,SCT110,0.00,577.00,VWS V14.01,2013-06-11 22:10:00,
2013-06-11 17:12:00,91.4,65.1,29.79,SSE,165,1.0,4.0,42,0.00,,CLR,0.00,570.00,VWS V14.01,2013-06-11 22:12:00,
2013-06-11 17:15:00,91.4,65.8,29.79,West,271,3.0,5.0,43,0.00,,SCT110,0.00,561.00,VWS V14.01,2013-06-11 22:15:00,
2013-06-11 17:17:00,91.2,64.2,29.79,NNW,329,2.0,6.0,41,0.00,,CLR,0.00,555.00,VWS V14.01,2013-06-11 22:17:00,
2013-06-11 17:20:00,91.1,64.1,29.79,WSW,237,2.0,6.0,41,0.00,,SCT110,0.00,545.00,VWS V14.01,2013-06-11 22:20:00,
2013-06-11 17:22:00,91.1,66.2,29.79,SW,236,0.0,4.0,44,0.00,,CLR,0.00,540.00,VWS V14.01,2013-06-11 22:22:00,
2013-06-11 17:25:00,91.1,64.8,29.79,SSW,198,0.0,4.0,42,0.00,,SCT110,0.00,529.00,VWS V14.01,2013-06-11 22:25:00,
2013-06-11 17:28:00,91.1,65.5,29.79,WSW,254,4.0,4.0,43,0.00,,CLR,0.00,522.00,VWS V14.01,2013-06-11 22:28:00,
2013-06-11 17:30:00,91.1,65.5,29.79,WSW,244,1.0,7.0,43,0.00,,SCT110,0.00,513.00,VWS V14.01,2013-06-11 22:30:00,
2013-06-11 17:33:00,91.0,66.1,29.79,WSW,244,2.0,6.0,44,0.00,,CLR,0.00,504.00,VWS V14.01,2013-06-11 22:33:00,
2013-06-11 17:35:00,90.8,69.0,29.79,WSW,245,2.0,6.0,49,0.00,,SCT110,0.00,497.00,VWS V14.01,2013-06-11 22:35:00,
2013-06-11 17:38:00,90.7,64.5,29.79,SW,231,3.0,5.0,42,0.00,,CLR,0.00,490.00,VWS V14.01,2013-06-11 22:38:00,
2013-06-11 17:40:00,90.6,66.4,29.79,NW,325,3.0,5.0,45,0.00,,SCT110,0.00,487.00,VWS V14.01,2013-06-11 22:40:00,
2013-06-11 17:43:00,90.5,65.6,29.79,SSW,200,0.0,5.0,44,0.00,,CLR,0.00,471.00,VWS V14.01,2013-06-11 22:43:00,
2013-06-11 17:45:00,90.3,65.4,29.78,WNW,282,2.0,5.0,44,0.00,,SCT110,0.00,468.00,VWS V14.01,2013-06-11 22:45:00,
2013-06-11 17:48:00,90.4,65.5,29.78,SW,223,4.0,8.0,44,0.00,,CLR,0.00,459.00,VWS V14.01,2013-06-11 22:48:00,
2013-06-11 17:50:00,90.3,64.8,29.78,SW,236,1.0,8.0,43,0.00,,SCT110,0.00,450.00,VWS V14.01,2013-06-11 22:50:00,
2013-06-11 17:53:00,90.3,65.4,29.78,SE,140,2.0,6.0,44,0.00,,CLR,0.00,441.00,VWS V14.01,2013-06-11 22:53:00,
2013-06-11 17:55:00,90.3,68.0,29.78,West,263,1.0,6.0,48,0.00,,SCT110,0.00,432.00,VWS V14.01,2013-06-11 22:55:00,
2013-06-11 17:58:00,90.3,66.7,29.78,West,263,1.0,2.0,46,0.00,,CLR,0.00,425.00,VWS V14.01,2013-06-11 22:58:00,
2013-06-11 18:00:00,90.3,66.1,29.78,NW,312,0.0,3.0,45,0.00,,SCT110,0.00,417.00,VWS V14.01,2013-06-11 23:00:00,
2013-06-11 18:03:00,90.3,68.6,29.78,SSW,192,0.0,3.0,49,0.00,,CLR,0.00,408.00,VWS V14.01,2013-06-11 23:03:00,
2013-06-11 18:05:00,90.2,67.3,29.78,WSW,254,1.0,3.0,47,0.00,,SCT110,0.00,399.00,VWS V14.01,2013-06-11 23:05:00,
2013-06-11 18:08:00,90.0,66.5,29.78,WSW,237,2.0,4.0,46,0.00,,CLR,0.00,390.00,VWS V14.01,2013-06-11 23:08:00,
2013-06-11 18:10:00,90.0,67.1,29.78,WSW,237,2.0,4.0,47,0.00,,SCT110,0.00,385.00,VWS V14.01,2013-06-11 23:10:00,
2013-06-11 18:13:00,89.9,68.2,29.78,WSW,258,0.0,3.0,49,0.00,,CLR,0.00,374.00,VWS V14.01,2013-06-11 23:13:00,
2013-06-11 18:15:00,89.7,69.8,29.78,WSW,258,0.0,3.0,52,0.00,,SCT110,0.00,367.00,VWS V14.01,2013-06-11 23:15:00,
2013-06-11 18:18:00,89.5,67.2,29.78,West,259,1.0,1.0,48,0.00,,CLR,0.00,357.00,VWS V14.01,2013-06-11 23:18:00,
2013-06-11 18:20:00,89.5,67.2,29.78,SSW,196,0.0,1.0,48,0.00,,SCT110,0.00,352.00,VWS V14.01,2013-06-11 23:20:00,
2013-06-11 18:23:00,89.3,67.7,29.78,SW,223,2.0,4.0,49,0.00,,CLR,0.00,343.00,VWS V14.01,2013-06-11 23:23:00,
2013-06-11 18:25:00,89.4,67.1,29.78,WSW,247,4.0,4.0,48,0.00,,SCT110,0.00,336.00,VWS V14.01,2013-06-11 23:25:00,
2013-06-11 18:28:00,89.2,68.7,29.78,WSW,247,1.0,4.0,51,0.00,,CLR,0.00,323.00,VWS V14.01,2013-06-11 23:28:00,
2013-06-11 18:30:00,88.9,67.3,29.77,WNW,292,1.0,4.0,49,0.00,,SCT110,0.00,318.00,VWS V14.01,2013-06-11 23:30:00,
2013-06-11 18:33:00,88.8,67.2,29.77,WSW,246,2.0,3.0,49,0.00,,CLR,0.00,308.00,VWS V14.01,2013-06-11 23:33:00,
2013-06-11 18:35:00,88.8,67.2,29.77,WNW,290,2.0,3.0,49,0.00,,SCT110,0.00,302.00,VWS V14.01,2013-06-11 23:35:00,
2013-06-11 18:39:00,88.5,68.6,29.77,WNW,290,0.0,2.0,52,0.00,,CLR,0.00,290.00,VWS V14.01,2013-06-11 23:39:00,
2013-06-11 18:40:00,88.3,67.3,29.77,West,269,2.0,3.0,50,0.00,,SCT110,0.00,288.00,VWS V14.01,2013-06-11 23:40:00,
2013-06-11 18:44:00,88.3,67.3,29.77,West,264,0.0,2.0,50,0.00,,CLR,0.00,274.00,VWS V14.01,2013-06-11 23:44:00,
2013-06-11 18:45:00,88.3,68.5,29.77,West,264,0.0,2.0,52,0.00,,SCT110,0.00,274.00,VWS V14.01,2013-06-11 23:45:00,
2013-06-11 18:49:00,88.3,67.9,29.77,WSW,245,4.0,5.0,51,0.00,,CLR,0.00,260.00,VWS V14.01,2013-06-11 23:49:00,
2013-06-11 18:50:00,88.2,69.5,29.77,WSW,245,1.0,5.0,54,0.00,,SCT110,0.00,258.00,VWS V14.01,2013-06-11 23:50:00,
2013-06-11 18:54:00,87.9,68.7,29.77,South,180,0.0,3.0,53,0.00,,CLR,0.00,248.00,VWS V14.01,2013-06-11 23:54:00,
2013-06-11 18:55:00,87.8,68.0,29.77,SSW,207,1.0,3.0,52,0.00,,SCT110,0.00,239.00,VWS V14.01,2013-06-11 23:55:00,
2013-06-11 18:59:00,87.6,68.4,29.77,SW,230,0.0,2.0,53,0.00,,CLR,0.00,193.00,VWS V14.01,2013-06-11 23:59:00,
2013-06-11 19:00:00,87.4,69.3,29.76,SW,229,0.0,2.0,55,0.00,,SCT110,0.00,111.00,VWS V14.01,2013-06-12 00:00:00,
2013-06-11 19:04:00,87.0,68.9,29.76,SW,229,0.0,1.0,55,0.00,,CLR,0.00,69.00,VWS V14.01,2013-06-12 00:04:00,
2013-06-11 19:05:00,86.8,69.2,29.76,SW,229,0.0,1.0,56,0.00,,SCT110,0.00,53.00,VWS V14.01,2013-06-12 00:05:00,
2013-06-11 19:09:00,86.5,70.0,29.76,SW,229,0.0,1.0,58,0.00,,CLR,0.00,42.00,VWS V14.01,2013-06-12 00:09:00,
2013-06-11 19:10:00,86.4,70.4,29.76,SW,229,0.0,1.0,59,0.00,,SCT110,0.00,42.00,VWS V14.01,2013-06-12 00:10:00,
2013-06-11 19:14:00,86.3,70.3,29.76,SW,229,0.0,2.0,59,0.00,,CLR,0.00,47.00,VWS V14.01,2013-06-12 00:14:00,
2013-06-11 19:15:00,86.3,68.2,29.76,NW,304,1.0,3.0,55,0.00,,SCT110,0.00,49.00,VWS V14.01,2013-06-12 00:15:00,
2013-06-11 19:19:00,86.1,68.6,29.76,NW,304,0.0,1.0,56,0.00,,CLR,0.00,54.00,VWS V14.01,2013-06-12 00:19:00,
2013-06-11 19:20:00,86.1,70.1,29.76,NW,304,0.0,2.0,59,0.00,,SCT110,0.00,49.00,VWS V14.01,2013-06-12 00:20:00,
2013-06-11 19:24:00,86.2,67.6,29.76,WSW,254,0.0,3.0,54,0.00,,CLR,0.00,51.00,VWS V14.01,2013-06-12 00:24:00,
2013-06-11 19:25:00,86.2,68.2,29.76,WSW,254,1.0,3.0,55,0.00,,SCT110,0.00,84.00,VWS V14.01,2013-06-12 00:25:00,
2013-06-11 19:29:00,85.9,67.3,29.76,WNW,296,1.0,2.0,54,0.00,,CLR,0.00,35.00,VWS V14.01,2013-06-12 00:29:00,
2013-06-11 19:30:00,85.8,67.2,29.76,East,99,0.0,2.0,54,0.00,,SCT110,0.00,35.00,VWS V14.01,2013-06-12 00:30:00,
2013-06-11 19:35:00,85.9,66.2,29.76,SE,140,2.0,7.0,52,0.00,,CLR,0.00,53.00,VWS V14.01,2013-06-12 00:35:00,
2013-06-11 19:40:00,85.9,67.3,29.76,West,274,0.0,4.0,54,0.00,,CLR,0.00,37.00,VWS V14.01,2013-06-12 00:40:00,
2013-06-11 19:45:00,85.3,66.8,29.77,WNW,300,0.0,2.0,54,0.00,,CLR,0.00,30.00,VWS V14.01,2013-06-12 00:45:00,
2013-06-11 19:50:00,84.8,66.8,29.77,East,93,0.0,2.0,55,0.00,,CLR,0.00,26.00,VWS V14.01,2013-06-12 00:50:00,
2013-06-11 19:55:00,84.4,66.5,29.77,East,92,0.0,1.0,55,0.00,,CLR,0.00,23.00,VWS V14.01,2013-06-12 00:55:00,
2013-06-11 20:00:00,84.0,66.6,29.77,East,94,0.0,2.0,56,0.00,,CLR,0.00,21.00,VWS V14.01,2013-06-12 01:00:00,
2013-06-11 20:05:00,83.7,66.9,29.77,East,94,0.0,0.0,57,0.00,,CLR,0.00,18.00,VWS V14.01,2013-06-12 01:05:00,
2013-06-11 20:10:00,83.4,66.1,29.77,East,94,0.0,1.0,56,0.00,,CLR,0.00,14.00,VWS V14.01,2013-06-12 01:10:00,
2013-06-11 20:15:00,83.3,66.5,29.78,East,94,0.0,1.0,57,0.00,,CLR,0.00,11.00,VWS V14.01,2013-06-12 01:15:00,
2013-06-11 20:20:00,83.0,66.2,29.78,East,94,0.0,1.0,57,0.00,,CLR,0.00,7.00,VWS V14.01,2013-06-12 01:20:00,
2013-06-11 20:25:00,82.9,66.1,29.78,East,94,0.0,1.0,57,0.00,,CLR,0.00,5.00,VWS V14.01,2013-06-12 01:25:00,
2013-06-11 20:30:00,82.7,65.9,29.78,East,94,0.0,1.0,57,0.00,,CLR,0.00,0.00,VWS V14.01,2013-06-12 01:30:00,
2013-06-11 20:35:00,82.6,66.3,29.78,East,94,0.0,1.0,58,0.00,,CLR,0.00,0.00,VWS V14.01,2013-06-12 01:35:00,
2013-06-11 20:40:00,82.2,66.5,29.78,East,94,0.0,1.0,59,0.00,,CLR,0.00,0.00,VWS V14.01,2013-06-12 01:40:00,
2013-06-11 20:45:00,82.0,66.3,29.77,East,94,0.0,1.0,59,0.00,,CLR,0.00,0.00,VWS V14.01,2013-06-12 01:45:00,
2013-06-11 20:50:00,81.8,67.1,29.77,ESE,106,1.0,3.0,61,0.00,,CLR,0.00,0.00,VWS V14.01,2013-06-12 01:50:00,
2013-06-11 20:55:00,81.2,66.9,29.77,ESE,105,0.0,2.0,62,0.00,,CLR,0.00,0.00,VWS V14.01,2013-06-12 01:55:00,
2013-06-11 21:00:00,80.9,66.7,29.77,ESE,105,0.0,1.0,62,0.00,,CLR,0.00,0.00,VWS V14.01,2013-06-12 02:00:00,
2013-06-11 21:05:00,80.7,66.9,29.77,ESE,105,0.0,2.0,63,0.00,,CLR,0.00,0.00,VWS V14.01,2013-06-12 02:05:00,
2013-06-11 21:10:00,80.5,67.2,29.77,ESE,103,2.0,2.0,64,0.00,,SCT110,0.00,0.00,VWS V14.01,2013-06-12 02:10:00,
2013-06-11 21:11:00,80.5,67.2,29.77,ESE,103,0.0,2.0,64,0.00,,CLR,0.00,0.00,VWS V14.01,2013-06-12 02:11:00,
2013-06-11 21:15:00,80.5,67.2,29.78,ESE,103,0.0,2.0,64,0.00,,SCT110,0.00,0.00,VWS V14.01,2013-06-12 02:15:00,
2013-06-11 21:16:00,80.4,67.1,29.78,ESE,103,0.0,0.0,64,0.00,,CLR,0.00,0.00,VWS V14.01,2013-06-12 02:16:00,
2013-06-11 21:20:00,80.3,67.0,29.78,ESE,107,0.0,1.0,64,0.00,,SCT110,0.00,0.00,VWS V14.01,2013-06-12 02:20:00,
2013-06-11 21:21:00,80.3,67.0,29.78,ESE,107,0.0,1.0,64,0.00,,CLR,0.00,0.00,VWS V14.01,2013-06-12 02:21:00,
2013-06-11 21:25:00,80.3,67.5,29.78,ESE,107,0.0,1.0,65,0.00,,SCT110,0.00,0.00,VWS V14.01,2013-06-12 02:25:00,
2013-06-11 21:26:00,80.2,67.4,29.78,ESE,107,0.0,0.0,65,0.00,,CLR,0.00,0.00,VWS V14.01,2013-06-12 02:26:00,
2013-06-11 21:30:00,79.8,67.4,29.78,ESE,107,0.0,0.0,66,0.00,,SCT110,0.00,0.00,VWS V14.01,2013-06-12 02:30:00,
2013-06-11 21:31:00,79.8,67.4,29.78,ESE,107,0.0,0.0,66,0.00,,CLR,0.00,0.00,VWS V14.01,2013-06-12 02:31:00,
2013-06-11 21:35:00,79.4,67.5,29.78,ESE,107,0.0,0.0,67,0.00,,SCT110,0.00,0.00,VWS V14.01,2013-06-12 02:35:00,
2013-06-11 21:36:00,79.3,67.4,29.78,ESE,105,1.0,1.0,67,0.00,,CLR,0.00,0.00,VWS V14.01,2013-06-12 02:36:00,
2013-06-11 21:40:00,79.4,67.5,29.78,East,98,0.0,2.0,67,0.00,,SCT110,0.00,0.00,VWS V14.01,2013-06-12 02:40:00,
2013-06-11 21:41:00,79.4,67.5,29.78,SW,215,1.0,1.0,67,0.00,,CLR,0.00,0.00,VWS V14.01,2013-06-12 02:41:00,
2013-06-11 21:45:00,79.4,67.5,29.78,ESE,104,0.0,2.0,67,0.00,,SCT110,0.00,0.00,VWS V14.01,2013-06-12 02:45:00,
2013-06-11 21:46:00,79.4,67.5,29.78,ESE,104,0.0,0.0,67,0.00,,CLR,0.00,0.00,VWS V14.01,2013-06-12 02:46:00,
2013-06-11 21:50:00,79.6,67.7,29.78,ESE,104,0.0,0.0,67,0.00,,SCT110,0.00,0.00,VWS V14.01,2013-06-12 02:50:00,
2013-06-11 21:51:00,79.5,67.6,29.78,ESE,104,0.0,0.0,67,0.00,,CLR,0.00,0.00,VWS V14.01,2013-06-12 02:51:00,
2013-06-11 21:55:00,79.3,67.4,29.78,ESE,104,0.0,0.0,67,0.00,,SCT110,0.00,0.00,VWS V14.01,2013-06-12 02:55:00,
2013-06-11 21:56:00,79.2,67.3,29.78,ESE,104,0.0,0.0,67,0.00,,CLR,0.00,0.00,VWS V14.01,2013-06-12 02:56:00,
2013-06-11 22:00:00,79.1,67.6,29.79,ESE,104,0.0,0.0,68,0.00,,SCT110,0.00,0.00,VWS V14.01,2013-06-12 03:00:00,
2013-06-11 22:01:00,79.1,67.6,29.79,ESE,104,0.0,1.0,68,0.00,,CLR,0.00,0.00,VWS V14.01,2013-06-12 03:01:00,
2013-06-11 22:05:00,78.8,67.8,29.79,ESE,104,0.0,1.0,69,0.00,,SCT110,0.00,0.00,VWS V14.01,2013-06-12 03:05:00,
2013-06-11 22:06:00,78.9,67.9,29.79,ESE,104,0.0,2.0,69,0.00,,CLR,0.00,0.00,VWS V14.01,2013-06-12 03:06:00,
2013-06-11 22:10:00,78.9,67.9,29.79,ESE,104,1.0,3.0,69,0.00,,SCT110,0.00,0.00,VWS V14.01,2013-06-12 03:10:00,
2013-06-11 22:11:00,79.0,68.0,29.79,ESE,104,0.0,2.0,69,0.00,,CLR,0.00,0.00,VWS V14.01,2013-06-12 03:11:00,
2013-06-11 22:15:00,78.9,67.9,29.80,ESE,104,0.0,2.0,69,0.00,,SCT110,0.00,0.00,VWS V14.01,2013-06-12 03:15:00,
2013-06-11 22:16:00,78.9,67.9,29.80,ESE,104,0.0,1.0,69,0.00,,CLR,0.00,0.00,VWS V14.01,2013-06-12 03:16:00,
2013-06-11 22:20:00,79.0,68.0,29.80,ESE,106,3.0,3.0,69,0.00,,SCT110,0.00,0.00,VWS V14.01,2013-06-12 03:20:00,
2013-06-11 22:21:00,79.0,68.0,29.80,ESE,108,0.0,3.0,69,0.00,,CLR,0.00,0.00,VWS V14.01,2013-06-12 03:21:00,
2013-06-11 22:25:00,79.0,68.0,29.80,ESE,102,0.0,3.0,69,0.00,,SCT110,0.00,0.00,VWS V14.01,2013-06-12 03:25:00,
2013-06-11 22:26:00,78.9,67.9,29.80,ESE,102,0.0,0.0,69,0.00,,CLR,0.00,0.00,VWS V14.01,2013-06-12 03:26:00,
2013-06-11 22:30:00,78.8,67.8,29.80,ESE,102,0.0,1.0,69,0.00,,SCT110,0.00,0.00,VWS V14.01,2013-06-12 03:30:00,
2013-06-11 22:31:00,78.8,67.8,29.80,ESE,102,0.0,1.0,69,0.00,,CLR,0.00,0.00,VWS V14.01,2013-06-12 03:31:00,
2013-06-11 22:35:00,78.7,68.1,29.80,ESE,102,0.0,1.0,70,0.00,,SCT110,0.00,0.00,VWS V14.01,2013-06-12 03:35:00,
2013-06-11 22:37:00,78.6,68.0,29.80,ESE,102,1.0,2.0,70,0.00,,CLR,0.00,0.00,VWS V14.01,2013-06-12 03:37:00,
2013-06-11 22:40:00,78.4,67.8,29.80,SSE,155,0.0,3.0,70,0.00,,SCT110,0.00,0.00,VWS V14.01,2013-06-12 03:40:00,
2013-06-11 22:42:00,78.3,67.7,29.80,SSE,155,0.0,0.0,70,0.00,,CLR,0.00,0.00,VWS V14.01,2013-06-12 03:42:00,
2013-06-11 22:45:00,78.0,67.8,29.80,SSE,155,0.0,1.0,71,0.00,,SCT110,0.00,0.00,VWS V14.01,2013-06-12 03:45:00,
2013-06-11 22:47:00,78.0,67.8,29.80,NE,54,0.0,1.0,71,0.00,,CLR,0.00,0.00,VWS V14.01,2013-06-12 03:47:00,
2013-06-11 22:50:00,78.1,67.5,29.80,SSW,209,0.0,3.0,70,0.00,,SCT110,0.00,0.00,VWS V14.01,2013-06-12 03:50:00,
2013-06-11 22:52:00,78.2,67.6,29.80,ESE,118,1.0,1.0,70,0.00,,CLR,0.00,0.00,VWS V14.01,2013-06-12 03:52:00,
2013-06-11 22:55:00,78.1,67.5,29.80,West,259,0.0,3.0,70,0.00,,SCT110,0.00,0.00,VWS V14.01,2013-06-12 03:55:00,
2013-06-11 22:57:00,78.1,67.5,29.80,West,260,0.0,2.0,70,0.00,,CLR,0.00,0.00,VWS V14.01,2013-06-12 03:57:00,
2013-06-11 23:00:00,78.2,67.6,29.80,WNW,291,0.0,3.0,70,0.00,,SCT110,0.00,0.00,VWS V14.01,2013-06-12 04:00:00,
2013-06-11 23:01:00,78.2,67.6,29.80,WNW,291,0.0,0.0,70,0.00,,CLR,0.00,0.00,VWS V14.01,2013-06-12 04:01:00,
2013-06-11 23:02:00,78.2,67.6,29.80,WNW,292,0.0,1.0,70,0.00,,CLR,0.00,0.00,VWS V14.01,2013-06-12 04:02:00,
2013-06-11 23:04:00,78.2,67.6,29.80,WNW,292,0.0,1.0,70,0.00,,CLR,0.00,0.00,VWS V14.01,2013-06-12 04:04:00,
2013-06-11 23:05:00,78.0,67.4,29.80,WNW,292,0.0,2.0,70,0.00,,CLR,0.00,0.00,VWS V14.01,2013-06-12 04:05:00,
2013-06-11 23:10:00,78.1,67.5,29.80,West,279,0.0,2.0,70,0.00,,CLR,0.00,0.00,VWS V14.01,2013-06-12 04:10:00,
2013-06-11 23:15:00,77.8,67.2,29.80,West,279,1.0,1.0,70,0.00,,CLR,0.00,0.00,VWS V14.01,2013-06-12 04:15:00,
2013-06-11 23:20:00,77.7,67.1,29.80,NW,321,0.0,2.0,70,0.00,,CLR,0.00,0.00,VWS V14.01,2013-06-12 04:20:00,
2013-06-11 23:25:00,77.6,67.1,29.80,NW,322,0.0,2.0,70,0.00,,CLR,0.00,0.00,VWS V14.01,2013-06-12 04:25:00,
2013-06-11 23:30:00,77.6,67.1,29.79,WSW,255,0.0,4.0,70,0.00,,CLR,0.00,0.00,VWS V14.01,2013-06-12 04:30:00,
2013-06-11 23:35:00,77.3,66.8,29.79,WNW,303,1.0,3.0,70,0.00,,CLR,0.00,0.00,VWS V14.01,2013-06-12 04:35:00,
2013-06-11 23:40:00,77.4,66.9,29.79,NW,313,1.0,3.0,70,0.00,,CLR,0.00,0.00,VWS V14.01,2013-06-12 04:40:00,
2013-06-11 23:45:00,77.7,67.1,29.79,NNE,12,0.0,0.0,70,0.00,,CLR,0.00,0.00,VWS V14.01,2013-06-12 04:45:00,
2013-06-11 23:50:00,77.7,67.1,29.79,NW,312,3.0,5.0,70,0.00,,SCT110,0.00,0.00,VWS V14.01,2013-06-12 04:50:00,
2013-06-11 23:51:00,77.7,67.1,29.79,South,169,4.0,4.0,70,0.00,,CLR,0.00,0.00,VWS V14.01,2013-06-12 04:51:00,
2013-06-11 23:55:00,77.7,67.1,29.79,SSW,207,0.0,6.0,70,0.00,,SCT110,0.00,0.00,VWS V14.01,2013-06-12 04:55:00,
2013-06-11 23:56:00,77.7,67.1,29.79,South,186,1.0,4.0,70,0.00,,CLR,0.00,0.00,VWS V14.01,2013-06-12 04:56:00,